{"data":{"norad_id":67398,"epoch":"2026-09-20T23:27:47.587968Z","epoch_age_seconds":58885,"freshness":"FRESH","line1":"1 67398U 26004AM  26263.97763412  .00002477  00000+0  11739-3 0  9996","line2":"2 67398  97.4644 262.1317 0006742  24.9151 335.2408 15.20229147 38315","mean_motion":15.20229147,"eccentricity":0.0006742,"inclination_deg":97.4644,"raan_deg":262.1317,"arg_perigee_deg":24.9151,"mean_anomaly_deg":335.2408,"bstar":0.00011739,"rev_number":3831,"period_min":94.722562242783,"perigee_km":500.50812844967,"apogee_km":509.78955107601,"semimajor_km":6883.2858397628,"source":"CELESTRAK","updated_at":"2026-09-21T09:00:16.620341Z"}}